Starlink 33707

operational
NORAD ID: 63401 Int'l Des: 2025-065 Owner: SPXS Country: US Constellation: starlink
LEOCIRCULAR

Starlink 33707について

説明を読み込み中...

リアルタイム位置

3D地球を読み込み中...

次回通過

高度履歴

Altitude vs Time

uPlot chart will show altitude changes over time

軌道要素

1 63401U 25065C 25351.64394486 .00019564 00000-0 71800-3 0 9996
2 63401 42.9964 210.3030 0001260 291.1462 68.9255 15.27605747 40297
Epoch: Dec 17, 2025 • Age: 8 hours

現在のステータス

高度 494.9 km
速度 7.62 km/s
衛星直下点 -41.76°S, 65.01°E
打ち上げ日 Mar 31, 2025
運用期間 0.7 years
タイプ internet

技術仕様

分類 Payload
質量 575.00 kg
乾燥質量 530.00 kg
総質量 575.00 kg
長さ 0.30 m
直径 4.10 m
スパン 29.00 m
形状 Box + pan
製造者 SPXS
バスタイプ Starlink V2MO
フェーズステータス In Orbit
所有者/国 SPXS/US

大規模コンステレーション

Loading constellations...